timestamp,wind_dir_avg,wind_spd_avg,wind_spd_max_dir,wind_spd_gust,battery_voltage,lat,long
2023-12-29 00:04:00+00:00,324.0,5.28,322.0,5.71,12.33,47.59359,-54.27349
2023-12-29 00:14:00+00:00,323.0,5.84,325.0,6.85,12.33,47.59359,-54.27349
2023-12-29 00:24:00+00:00,329.0,6.47,328.0,7.5,12.33,47.59359,-54.27349
2023-12-29 00:34:00+00:00,342.0,5.05,356.0,6.64,12.33,47.59359,-54.27349
2023-12-29 00:44:00+00:00,341.0,5.89,330.0,6.86,12.33,47.59359,-54.27349
2023-12-29 00:54:00+00:00,333.0,5.83,329.0,6.78,12.33,47.59359,-54.27349
2023-12-29 01:04:00+00:00,343.0,6.12,339.0,7.14,12.33,47.59359,-54.27349
2023-12-29 01:14:00+00:00,4.0,6.52,5.0,7.51,12.33,47.59359,-54.27349
2023-12-29 01:24:00+00:00,345.0,5.93,331.0,6.84,12.33,47.59359,-54.27349
2023-12-29 01:34:00+00:00,4.0,4.73,1.0,5.85,12.33,47.59359,-54.27349
2023-12-29 01:44:00+00:00,8.0,4.24,11.0,4.86,12.33,47.59359,-54.27349
2023-12-29 01:54:00+00:00,5.0,4.64,1.0,5.31,12.33,47.59359,-54.27349
2023-12-29 02:04:00+00:00,0.0,4.5,1.0,5.5,12.33,47.59359,-54.27349
2023-12-29 02:14:00+00:00,10.0,4.44,10.0,4.92,12.25,47.59359,-54.27349
2023-12-29 02:24:00+00:00,10.0,4.59,9.0,5.19,12.25,47.59359,-54.27349
2023-12-29 02:34:00+00:00,0.0,4.1,6.0,4.65,12.25,47.59359,-54.27349
2023-12-29 02:44:00+00:00,355.0,2.93,324.0,3.59,12.25,47.59359,-54.27349
2023-12-29 02:54:00+00:00,1.0,3.51,11.0,4.13,12.25,47.59359,-54.27349
2023-12-29 03:04:00+00:00,358.0,3.29,0.0,3.91,12.25,47.59359,-54.27349
2023-12-29 03:14:00+00:00,13.0,3.97,14.0,4.72,12.25,47.59359,-54.27349
2023-12-29 03:24:00+00:00,14.0,3.55,14.0,4.2,12.25,47.59359,-54.27349
2023-12-29 03:34:00+00:00,23.0,2.86,35.0,3.78,12.25,47.59359,-54.27349
2023-12-29 03:44:00+00:00,12.0,2.8,8.0,3.31,12.25,47.59359,-54.27349
2023-12-29 03:54:00+00:00,1.0,4.88,1.0,5.47,12.25,47.59359,-54.27349
2023-12-29 04:04:00+00:00,356.0,2.75,1.0,3.3,12.25,47.59359,-54.27349
2023-12-29 04:14:00+00:00,293.0,4.37,282.0,6.42,12.25,47.59359,-54.27349
2023-12-29 04:24:00+00:00,349.0,2.99,304.0,4.96,12.25,47.59359,-54.27349
2023-12-29 04:34:00+00:00,301.0,3.69,291.0,6.46,12.25,47.59359,-54.27349
2023-12-29 04:44:00+00:00,355.0,4.77,343.0,5.87,12.25,47.59359,-54.27349
2023-12-29 04:54:00+00:00,341.0,4.01,307.0,6.83,12.25,47.59359,-54.27349
2023-12-29 05:04:00+00:00,330.0,4.77,318.0,7.44,12.25,47.59359,-54.27349
2023-12-29 05:14:00+00:00,359.0,5.28,335.0,6.26,12.25,47.59359,-54.27349
2023-12-29 05:24:00+00:00,5.0,2.64,354.0,4.05,12.25,47.59359,-54.27349
2023-12-29 05:34:00+00:00,335.0,3.6,297.0,5.9,12.25,47.59359,-54.27349
2023-12-29 05:44:00+00:00,9.0,3.39,3.0,4.33,12.25,47.59359,-54.27349
2023-12-29 05:54:00+00:00,10.0,4.9,6.0,5.85,12.25,47.59359,-54.27349
2023-12-29 06:04:00+00:00,358.0,5.55,1.0,6.81,12.25,47.59359,-54.27349
2023-12-29 06:14:00+00:00,353.0,5.49,321.0,8.08,12.17,47.59359,-54.27349
2023-12-29 06:24:00+00:00,351.0,3.32,313.0,4.63,12.17,47.59359,-54.27349
2023-12-29 06:34:00+00:00,355.0,3.41,357.0,4.06,12.17,47.59359,-54.27349
2023-12-29 06:44:00+00:00,332.0,3.81,305.0,6.41,12.17,47.59359,-54.27349
2023-12-29 06:54:00+00:00,1.0,4.12,358.0,5.23,12.17,47.59359,-54.27349
2023-12-29 07:04:00+00:00,3.0,5.17,2.0,6.18,12.17,47.59359,-54.27349
2023-12-29 07:14:00+00:00,358.0,5.13,356.0,5.95,12.17,47.59359,-54.27349
2023-12-29 07:24:00+00:00,9.0,4.92,14.0,5.77,12.17,47.59359,-54.27349
2023-12-29 07:34:00+00:00,359.0,5.4,359.0,6.65,12.17,47.59359,-54.27349
2023-12-29 07:44:00+00:00,10.0,4.09,5.0,4.77,12.17,47.59359,-54.27349
2023-12-29 07:54:00+00:00,358.0,4.62,2.0,5.51,12.17,47.59359,-54.27349
2023-12-29 08:04:00+00:00,11.0,4.79,10.0,5.88,12.17,47.59359,-54.27349
2023-12-29 08:14:00+00:00,51.0,4.27,43.0,6.24,12.17,47.59359,-54.27349
2023-12-29 08:24:00+00:00,4.0,3.02,5.0,3.66,12.17,47.59359,-54.27349
2023-12-29 08:34:00+00:00,17.0,4.02,10.0,5.42,12.17,47.59359,-54.27349
2023-12-29 08:44:00+00:00,41.0,5.51,46.0,6.72,12.17,47.59359,-54.27349
2023-12-29 08:54:00+00:00,15.0,6.26,14.0,7.28,12.17,47.59359,-54.27349
2023-12-29 09:04:00+00:00,11.0,5.76,13.0,6.55,12.17,47.59359,-54.27349
2023-12-29 09:14:01+00:00,35.0,5.38,37.0,6.42,12.09,47.59359,-54.27349
2023-12-29 09:24:01+00:00,17.0,5.23,21.0,6.82,12.09,47.59359,-54.27349
2023-12-29 09:34:01+00:00,12.0,4.32,24.0,4.93,12.09,47.59359,-54.27349
2023-12-29 09:44:01+00:00,34.0,5.36,45.0,6.61,12.09,47.59359,-54.27349
2023-12-29 09:54:01+00:00,48.0,5.68,47.0,6.36,12.09,47.59359,-54.27349
2023-12-29 10:04:01+00:00,32.0,4.42,26.0,6.04,12.09,47.59359,-54.27349
2023-12-29 10:14:00+00:00,34.0,5.08,45.0,6.41,12.09,47.59359,-54.27349
2023-12-29 10:24:00+00:00,51.0,5.02,44.0,6.33,12.09,47.59359,-54.27349
2023-12-29 10:34:00+00:00,38.0,5.72,44.0,6.41,12.09,47.59359,-54.27349
2023-12-29 10:44:00+00:00,57.0,4.47,59.0,5.73,12.09,47.59359,-54.27349
2023-12-29 10:54:00+00:00,46.0,4.27,44.0,5.25,12.09,47.59359,-54.27349
2023-12-29 11:04:00+00:00,49.0,4.35,56.0,6.02,12.09,47.59359,-54.27349
2023-12-29 11:14:00+00:00,47.0,5.2,38.0,6.64,12.09,47.59359,-54.27349
2023-12-29 11:24:00+00:00,75.0,4.36,69.0,5.5,12.09,47.59359,-54.27349
2023-12-29 11:34:00+00:00,56.0,4.51,58.0,5.82,12.09,47.59359,-54.27349
2023-12-29 11:44:00+00:00,56.0,4.21,65.0,5.66,12.09,47.59359,-54.27349
2023-12-29 11:54:00+00:00,37.0,4.17,44.0,5.88,12.09,47.59359,-54.27349
2023-12-29 12:04:00+00:00,40.0,5.56,61.0,7.94,12.09,47.59359,-54.27349
2023-12-29 12:14:00+00:00,51.0,3.6,72.0,6.92,12.73,47.59359,-54.27349
2023-12-29 12:24:00+00:00,64.0,4.37,76.0,7.56,12.73,47.59359,-54.27349
2023-12-29 12:34:00+00:00,70.0,4.48,62.0,7.62,12.73,47.59359,-54.27349
2023-12-29 12:44:00+00:00,67.0,4.21,81.0,5.36,12.73,47.59359,-54.27349
2023-12-29 12:54:00+00:00,63.0,4.2,54.0,5.79,12.73,47.59359,-54.27349
2023-12-29 13:04:00+00:00,85.0,4.42,85.0,5.61,12.73,47.59359,-54.27349
2023-12-29 13:14:00+00:00,60.0,4.59,57.0,5.83,13.6,47.59359,-54.27349
2023-12-29 13:24:00+00:00,73.0,4.63,74.0,6.06,13.6,47.59359,-54.27349
2023-12-29 13:34:00+00:00,77.0,3.29,79.0,5.26,13.6,47.59359,-54.27349
2023-12-29 13:44:00+00:00,80.0,3.75,84.0,5.17,13.6,47.59359,-54.27349
2023-12-29 13:54:00+00:00,56.0,4.31,63.0,5.58,13.6,47.59359,-54.27349
2023-12-29 14:04:00+00:00,77.0,3.04,85.0,5.7,13.6,47.59359,-54.27349
2023-12-29 14:14:00+00:00,80.0,3.76,85.0,5.36,13.13,47.59359,-54.27349
2023-12-29 14:24:00+00:00,61.0,3.87,61.0,5.0,13.13,47.59359,-54.27349
2023-12-29 14:34:00+00:00,94.0,3.65,95.0,5.21,13.13,47.59359,-54.27349
2023-12-29 14:44:00+00:00,104.0,4.38,92.0,8.2,13.13,47.59359,-54.27349
2023-12-29 14:54:00+00:00,86.0,3.93,100.0,7.35,13.13,47.59359,-54.27349
2023-12-29 15:04:00+00:00,83.0,4.01,94.0,6.09,13.13,47.59359,-54.27349
2023-12-29 23:14:00+00:00,70.0,7.79,74.0,9.51,12.33,47.59359,-54.27349
2023-12-29 23:24:00+00:00,73.0,8.18,74.0,10.42,12.33,47.59359,-54.27349
2023-12-29 23:34:00+00:00,74.0,9.01,63.0,11.0,12.33,47.59359,-54.27349
2023-12-29 23:44:00+00:00,70.0,9.98,69.0,11.43,12.33,47.59359,-54.27349
2023-12-29 23:54:00+00:00,69.0,10.81,71.0,12.08,12.33,47.59359,-54.27349
